www.pogodaiklimat.ru

Погода и климат >> Архив погоды >> Россия >> Приморский край >> Тимирязевский


АРХИВ ПОГОДЫ в Тимирязевском

Время (UTC), дата Ветер
(напр.,м/с)
 
Видим.   Явления Облачность Т
(С)
Тd
(С)
f
(%)
Тe
(С)
Тes
(С)
Комфортность P
(гПа)
Po
(гПа)
Тmin
(С)
Tmax
(С)
R
(мм)
R24
(мм)
S
(см)
09 19.04 С 7
{15}
50 км ясно +13.0 -16.1 12 +11 +11 1012.5 1008.3 +14.8
12 19.04 С 2 50 км ясно +5.2 -12.0 28 +4 +4 1014.9 1010.5
15 19.04 З 1 50 км ясно -0.7 -9.2 53 -2 -2 1015.9 1011.4
18 19.04 Ю 3 50 км 3/3 600 м
[Sc]
-1.3 -9.2 55 -6 -6 1015.9 1011.4
21 19.04 Ю 1 10 км 8/3 600 м
[Sc Ci fib]
-2.9 -8.6 65 -5 -5 1015.9 1011.4 -3.8
00 20.04 штиль 0 10 км 10/3 600 м
[Sc Ci fib]
+7.3 -9.9 28 +7 +14 1014.9 1010.6
03 20.04 Ю 2 20 км 10/0
[Cs]
+13.4 -11.7 16 +13 +26 опасность
простуды
1011.6 1007.3
06 20.04 Ю 5
{14}
20 км 10/0
[As trans Cs]
+13.3 -11.2 17 +12 +16 1008.6 1004.4
09 20.04 Ю 6-12
{14}
20 км 10/0
[As trans Cs]
+10.7 -9.4 23 +8 +8 1006.5 1002.2 +14.9
12 20.04 Ю 6-12
{14}
20 км 10/0
[As trans Cs]
+6.6 +1.9 72 +2 +2 1008.5 1004.2
15 20.04 Ю 4
{12}
20 км 10/8 1000 м
[Sc Ci fib]
+6.7 +3.1 78 +3 +3 1009.3 1005.0
18 20.04 Ю 5 20 км 10/0
[Ci fib]
+6.2 +4.8 91 +2 +2 1010.4 1006.1
21 20.04 Ю 1 10 км 6/0
[Ci fib]
+4.5 +2.0 84 +3 +3 1012.2 1007.8 +4.2
00 21.04 СЗ 4 20 км 10/6 600 м
[Sc Ci fib]
+9.8 -1.9 44 +8 +9 1013.5 1009.2 +3.3
03 21.04 СЗ 4 10 км 10/5 600 м
[Cb cap Ci ing]
+15.3 -15.6 10 +15 +19 1012.2 1008.0
06 21.04 З 6 10 км 10/0
[Ci fib]
+17.4 -15.4 9 +17 +20 1010.1 1006.0
09 21.04 С 3 10 км 6/0
[Ci fib]
+15.9 -12.2 13 +16 +16 1009.9 1005.7 +18.0
12 21.04 Ю 2 10 км ясно +10.9 -10.5 21 +10 +10 1013.2 1008.9
15 21.04 СВ 2 10 км ясно +3.6 -7.1 45 +1 +1 1015.5 1011.1
18 21.04 ЮЗ 1 10 км ясно 0.0 -6.6 61 -2 -2 1017.1 1012.6
21 21.04 Ю 2 10 км ясно -0.2 -7.1 60 -3 -3 1018.6 1014.1 -1.8
00 22.04 штиль 0 4000 м дым ясно +9.4 -8.3 28 +9 +21 опасность
простуды
1019.5 1015.2
03 22.04 С 2 20 км 3/0
[Ci fib]
+14.9 -11.9 15 +15 +31 опасность
простуды
1018.6 1014.4
06 22.04 Ю 2 20 км 10/0
[Ci fib]
+18.7 -13.0 10 +19 +27 1015.8 1011.7
09 22.04 Ю 5
{12}
20 км 3/0
[Ci fib]
+17.1 -12.5 12 +17 +17 1013.7 1009.5 +19.2
12 22.04 Ю 5
{13}
20 км 10/0
[Ci fib]
+11.9 -14.9 14 +10 +10 1014.4 1010.1
15 22.04 Ю 7-14
{14}
20 км 10/0
[As op]
+10.4 -10.0 23 +8 +8 1013.5 1009.2
18 22.04 Ю 8-14
{15}
20 км в посл. час дождь 10/4 300 м
[St As op]
+8.3 +5.5 83 +4 +4 1010.4 1006.1
21 22.04 Ю 10-21
{21}
4000 м слаб. дождь 10/8 300 м
[Frnb As op]
+9.4 +8.1 92 +5 +5 1009.1 1004.8 +7.2 0.8
00 23.04 Ю 9-18
{21}
10 км в посл. час дождь 10/10 300 м
[St]
+9.8 +8.5 92 +5 +5 1009.8 1005.5
03 23.04 Ю 8-18
{18}
20 км 10/10 300 м
[St]
+10.7 +8.5 86 +7 +7 1008.8 1004.6
06 23.04 Ю 7-13
{17}
20 км 10/8 300 м
[St Ac trans Ci fib]
+12.2 +8.5 78 +9 +10 1007.7 1003.5
09 23.04 Ю 8-17
{17}
10 км 10/10 300 м
[St]
+10.2 +8.6 90 +6 +6 1007.5 1003.2 +12.2 0.0
12 23.04 Ю 8-14
{17}
10 км 10/10 300 м
[St]
+9.5 +8.3 92 +5 +5 1008.8 1004.6
15 23.04 Ю 7-13
{15}
10 км 10/10 300 м
[St]
+9.1 +8.6 97 +5 +5 1009.4 1005.1
18 23.04 Ю 2
{13}
10 км 10/10 300 м
[St]
+8.9 +8.3 96 +7 +7 1011.2 1006.9
21 23.04 С 2 4000 м дымка 10/8 300 м
[St Ac As]
+8.2 +7.8 97 +6 +6 1011.4 1007.1 +8.1
00 24.04 СВ 1 4000 м дымка 10/0
[As op]
+8.5 +8.0 97 +8 +10 1012.1 1007.8
03 24.04 С 3 4000 м дымка 10/0
[As op]
+11.5 +6.3 70 +10 +13 1012.3 1008.1
06 24.04 СВ 2
{15}
20 км слаб. ливневой дождь 10/10 600 м
[Cb cap]
+7.6 +2.9 72 +6 +6 1013.0 1008.7
09 24.04 СВ 1 20 км {ливн. осадки} 10/10 600 м
[Sc diur, vesp]
+7.3 +3.4 76 +7 +7 1011.6 1007.3 +11.9 0.3
12 24.04 СВ 2 20 км {ливн. осадки} 10/6 600 м
[Sc diur, vesp Ci fib]
+3.9 +2.7 92 +1 +1 1012.8 1008.4
15 24.04 штиль 0 4000 м дымка 10/8 600 м
[Sc diur, vesp Ci fib]
+1.7 +1.5 99 0 0 1013.5 1009.1
18 24.04 штиль 0 4000 м дымка ясно -0.9 -1.0 99 -2 -2 1013.2 1008.7
21 24.04 Ю 1 4000 м дымка 10/3 600 м
[Sc Ci fib]
-2.6 -2.8 99 -5 -5 1014.7 1010.2 -3.2
00 25.04 С 3 20 км 10/0
[Ci sp]
+7.8 -4.7 41 +6 +12 1015.6 1011.3
03 25.04 СВ 3 50 км 10/6 600 м
[Cu hum Ci fib]
+11.8 -4.1 33 +11 +15 1014.4 1010.2
06 25.04 СВ 5 50 км 10/1 600 м
[Cu hum Cs]
+12.3 -3.5 33 +10 +15 1013.4 1009.1
09 25.04 СВ 5
{10}
20 км 10/4 600 м
[Sc As trans]
+10.9 -4.2 34 +9 +9 1013.1 1008.8 +12.7
12 25.04 С 3 20 км 10/10 600 м
[Sc]
+7.9 -1.2 53 +6 +6 1014.9 1010.6
15 25.04 С 1 20 км 10/10 600 м
[Sc]
+4.6 +0.2 73 +4 +4 1015.5 1011.1
18 25.04 СЗ 2 20 км 9/9 600 м
[Sc]
+2.3 +0.1 85 -1 -1 1015.0 1010.6
21 25.04 В 1 50 км в посл. час ливневой дождь 9/6 600 м
[Cb cap Ac trans]
+3.7 +1.5 86 +2 +2 1016.7 1012.4 +2.2 0.0
00 26.04 СЗ 2 50 км {ливн. осадки} 10/3 1000 м
[Cu hum Ac trans Ci fib]
+8.2 +0.2 57 +7 +10 1017.4 1013.1
03 26.04 СВ 5 50 км 10/6 1000 м
[Cu hum Ci fib]
+12.4 -6.0 27 +11 +14 1016.1 1011.8

 

Местоположение метеостанции Тимирязевский (Приморский край, Россия): широта 43.88 долгота 131.90 высота над уровнем моря 36 м.

В архиве по умолчанию представлена погода в Тимирязевском за последнюю неделю. Архивные данные за месяц целиком и за предыдущие месяцы, начиная с января 2011 года, Вы можете получить, выбрав интересующий диапазон дат из раскрывающегося списка и нажав кнопку "Ввод!".


*Определитесь, кто Вы:
робот инопланетянин человек

Внимание! Время в таблицах - всемирное. Для получения местного времени необходимо прибавить поправку, которая равна 10 ч.

Смотрите также архив погоды в соседних городах и на ближайших метеорологических станциях:

Погода в Полтавке (Приморский край, Россия) (51 км)
Погода в Хороле (Приморский край, Россия) (62 км)
Погода в Многоудобном (Приморский край, Россия) (65 км)
Погода в Пограничном (Приморский край, Россия) (75 км)
Погода в Суйфэньхэ (Хэйлунцзян, Китай) (82 км)
Погода в Владивостоке (Приморский край, Россия) (85 км)
Погода в Барабаше (Приморский край, Россия) (86 км)
Погода в Анучино (Приморский край, Россия) (89 км)
Погода на Мысе Назимова (Приморский край, Россия) (92 км)
Погода в Астраханке (Приморский край, Россия) (94 км)

Пояснения к столбцам:

Ветер - указаны скорость ветра в м/с - средняя за 10 мин, порывы в срок и между сроками (в фигурных скобках) и направление, откуда дует ветер: С - северный, СВ - северо-восточный, В - восточный, ЮВ - юго-восточный, Ю - южный, ЮЗ - юго-западный, З - западный, СЗ - северо-западный.
Видимость - горизонтальная дальность видимости в метрах или километрах. При видимости от 1 до 10 км при отсутствии осадков обычно наблюдается дымка, при ухудшении видимости до 1 км и менее - туман. В сухую погоду видимость может ухудшаться дымом, пылью или мглою.
Явления - указаны атмосферные явления, наблюдавшиеся в срок или в последний час перед сроком; фигурными скобками обозначены явления, наблюдавшиеся между сроками (за 1-3 часа до срока); квадратными скобками обозначены град или гололедные отложения с указанием их диаметра в мм.
Облачность - указаны через наклонную черту общая и нижняя облачность в баллах и высота нижней границы облаков в метрах; квадратными скобками обозначены формы облаков: Ci - перистые, Cs - перисто-слоистые, Cc - перисто-кучевые, Ac - высококучевые, As - высокослоистые, Sc - слоисто-кучевые, Ns - слоисто-дождевые, Cu - кучевые, Cb - кучево-дождевые. Подробнее классификацию облаков см. в Атласе облаков (PDF).
T - Температура воздуха - температура, измеренная на высоте 2 м над землей.
Td - Температура точки росы - температура, при понижении до которой содержащийся в воздухе водяной пар достигнет насыщения.
f - Относительная влажность воздуха - влажноcть воздуха, измеренная на высоте 2 м над землей.
Te - Эффективная температура - температура, которую ощущает одетый по сезону человек в тени. Характеристика душности погоды. При расчете учитывается влияние влажности воздуха и скорости ветра на теплоощущения человека.
Tes - Эффективная температура на солнце - температура, которую ощущает человек, с поправкой на солнечный нагрев. Характеристика знойности погоды. Зависит от высоты солнца над горизонтом, облачности и скорости ветра. Ночью, в пасмурную погоду, а также при ветре 12 м/с и более поправка равна нулю.
P - Атмосферное давление - приведенное к уровню моря атмосферное давление.
Po - Атмосферное давление - измеренное на уровне метеостанции атмосферное давление.
Tmin - Минимальная температура - минимум температуры воздуха на высоте 2 м над землей.
Tmax - Максимальная температура - максимум температуры воздуха на высоте 2 м над землей.
R - Количество осадков - Количество выпавших осадков за период времени, мм. При наведении курсора мыши на число - период времени, за который выпало указанное количество осадков.
R24 - Количество осадков - Количество выпавших осадков за 24 часа, мм.
S - Снежный покров - Высота снежного покрова, см. При наведении курсора мыши на число - состояние снежного покрова и степень покрытия местности в баллах.